BAW892 EGLL-LBSF

Flight info

Callsign BAW892
Flight time 2h 44m
Altitude 35000
Route DET L6 DVR L9 KONAN UL607 KOK DCT REMBA M624 RITAX DCT BANUX DCT VEKIR DCT LATLO DCT OBEDI DCT CEPRA DCT PODET DCT LURID DCT SOSEK DCT NISVA
Aircraft A320/M-SDE3FGHIRWY/LB1

Departure

Time 2026-05-05 12:06
Airport London Heathrow Airport (EGLL)

Arrival

Time 2026-05-05 14:50
Airport Sofia Airport (LBSF)
Time Latitude Longitude Altitude Speed Heading
2026-05-05 11:48 51.47107 -0.46137 85 ft 0 kts 56°
2026-05-05 11:55 51.47105 -0.46142 88 ft 2 kts 56°
2026-05-05 11:55 51.47095 -0.46167 89 ft 3 kts 61°
2026-05-05 11:55 51.47087 -0.46191 87 ft 3 kts 57°
2026-05-05 11:56 51.47075 -0.46214 88 ft 3 kts 24°
2026-05-05 11:56 51.47057 -0.46220 89 ft 3 kts 343°
2026-05-05 11:56 51.47040 -0.46208 87 ft 2 kts 327°
2026-05-05 11:56 51.47034 -0.46202 89 ft 0 kts 326°
2026-05-05 11:58 51.47105 -0.46277 87 ft 20 kts 327°
2026-05-05 11:59 51.47224 -0.46414 88 ft 21 kts 312°
2026-05-05 11:59 51.47241 -0.46595 85 ft 14 kts 270°
2026-05-05 11:59 51.47241 -0.46738 85 ft 13 kts 270°
2026-05-05 11:59 51.47208 -0.46864 85 ft 13 kts 200°
2026-05-05 12:00 51.47110 -0.46869 85 ft 15 kts 180°
2026-05-05 12:00 51.47004 -0.46867 85 ft 16 kts 180°
2026-05-05 12:00 51.46905 -0.46866 85 ft 12 kts 179°
2026-05-05 12:00 51.46815 -0.46864 85 ft 13 kts 179°
2026-05-05 12:01 51.46721 -0.46862 87 ft 14 kts 179°
2026-05-05 12:01 51.46658 -0.46949 89 ft 13 kts 267°
2026-05-05 12:01 51.46658 -0.47115 85 ft 17 kts 269°
2026-05-05 12:01 51.46659 -0.47326 85 ft 20 kts 274°
2026-05-05 12:02 51.46656 -0.47546 84 ft 12 kts 268°
2026-05-05 12:02 51.46655 -0.47689 82 ft 13 kts 270°
2026-05-05 12:02 51.46655 -0.47840 83 ft 14 kts 271°
2026-05-05 12:02 51.46654 -0.47997 84 ft 14 kts 269°
2026-05-05 12:03 51.46652 -0.48127 85 ft 10 kts 269°
2026-05-05 12:03 51.46626 -0.48214 86 ft 10 kts 195°
2026-05-05 12:03 51.46604 -0.48215 86 ft 0 kts 180°
2026-05-05 12:04 51.46600 -0.48215 86 ft 2 kts 180°
2026-05-05 12:04 51.46574 -0.48215 90 ft 7 kts 179°
2026-05-05 12:05 51.46520 -0.48214 86 ft 8 kts 179°
2026-05-05 12:05 51.46481 -0.48183 87 ft 7 kts 95°
2026-05-05 12:05 51.46481 -0.48177 87 ft 1 kts 95°
2026-05-05 12:05 51.46480 -0.48058 84 ft 37 kts 88°
2026-05-05 12:06 51.46484 -0.47266 87 ft 101 kts 90°
2026-05-05 12:06 51.46489 -0.45869 83 ft 148 kts 89°
2026-05-05 12:06 51.46497 -0.44010 202 ft 178 kts 88°
2026-05-05 12:06 51.46492 -0.42009 872 ft 180 kts 96°
2026-05-05 12:07 51.45939 -0.40203 1538 ft 188 kts 125°
2026-05-05 12:07 51.45145 -0.38399 1793 ft 210 kts 120°
2026-05-05 12:07 51.44329 -0.36305 2170 ft 233 kts 118°
2026-05-05 12:07 51.43604 -0.33862 2596 ft 251 kts 103°
2026-05-05 12:08 51.43187 -0.31112 3397 ft 256 kts 101°
2026-05-05 12:08 51.42776 -0.28321 4275 ft 258 kts 101°
2026-05-05 12:08 51.42376 -0.25518 5187 ft 259 kts 101°
2026-05-05 12:08 51.41984 -0.22671 5802 ft 265 kts 101°
2026-05-05 12:09 51.41594 -0.19782 5970 ft 266 kts 101°
2026-05-05 12:09 51.41203 -0.16883 6006 ft 266 kts 101°
2026-05-05 12:09 51.40942 -0.14961 6008 ft 266 kts 101°
2026-05-05 12:09 51.40547 -0.12065 6008 ft 266 kts 101°
2026-05-05 12:10 51.40149 -0.09170 6008 ft 266 kts 101°
2026-05-05 12:10 51.39749 -0.06271 6005 ft 266 kts 101°
2026-05-05 12:10 51.39348 -0.03381 6006 ft 266 kts 102°
2026-05-05 12:10 51.38944 -0.00489 6007 ft 266 kts 102°
2026-05-05 12:11 51.38539 0.02407 6009 ft 266 kts 102°
2026-05-05 12:11 51.38134 0.05298 6008 ft 266 kts 101°
2026-05-05 12:11 51.37729 0.08193 5988 ft 267 kts 101°
2026-05-05 12:11 51.37325 0.11077 6324 ft 264 kts 102°
2026-05-05 12:12 51.36919 0.13977 6938 ft 270 kts 102°
2026-05-05 12:12 51.36506 0.16922 7560 ft 274 kts 102°
2026-05-05 12:12 51.36086 0.19921 8199 ft 277 kts 102°
2026-05-05 12:12 51.35658 0.22951 8852 ft 281 kts 102°
2026-05-05 12:13 51.35222 0.26019 9516 ft 285 kts 102°
2026-05-05 12:13 51.34782 0.29129 10148 ft 289 kts 102°
2026-05-05 12:13 51.34335 0.32288 10869 ft 294 kts 102°
2026-05-05 12:13 51.33881 0.35491 11505 ft 298 kts 102°
2026-05-05 12:14 51.33416 0.38743 12150 ft 301 kts 102°
2026-05-05 12:14 51.32946 0.42023 12799 ft 304 kts 102°
2026-05-05 12:14 51.32471 0.45342 13466 ft 307 kts 102°
2026-05-05 12:14 51.31992 0.48677 14108 ft 309 kts 102°
2026-05-05 12:15 51.31534 0.52032 14707 ft 310 kts 100°
2026-05-05 12:15 51.31158 0.55498 15082 ft 319 kts 98°
2026-05-05 12:15 51.30827 0.59076 15332 ft 334 kts 97°
2026-05-05 12:15 51.30507 0.62766 15888 ft 335 kts 97°
2026-05-05 12:16 51.30185 0.66457 16514 ft 336 kts 97°
2026-05-05 12:16 51.29854 0.70148 17156 ft 335 kts 98°
2026-05-05 12:16 51.29511 0.73827 17827 ft 335 kts 98°
2026-05-05 12:16 51.29161 0.77499 18458 ft 334 kts 98°
2026-05-05 12:17 51.28808 0.81152 19041 ft 332 kts 99°
2026-05-05 12:17 51.28454 0.84787 19633 ft 331 kts 99°
2026-05-05 12:17 51.28103 0.88358 20232 ft 328 kts 99°
2026-05-05 12:17 51.27748 0.91990 20832 ft 325 kts 99°
2026-05-05 12:18 51.27408 0.95484 21458 ft 321 kts 100°
2026-05-05 12:18 51.27068 0.98952 22118 ft 316 kts 100°
2026-05-05 12:18 51.26728 1.02398 22791 ft 309 kts 101°
2026-05-05 12:18 51.26394 1.05761 23469 ft 303 kts 101°
2026-05-05 12:19 51.26063 1.09105 23805 ft 306 kts 101°
2026-05-05 12:19 51.25727 1.12470 24129 ft 308 kts 101°
2026-05-05 12:19 51.25389 1.15835 24446 ft 310 kts 101°
2026-05-05 12:19 51.25048 1.19250 24774 ft 312 kts 101°
2026-05-05 12:20 51.24703 1.22696 25082 ft 314 kts 101°
2026-05-05 12:20 51.24355 1.26142 25401 ft 315 kts 101°
2026-05-05 12:20 51.24004 1.29617 25600 ft 321 kts 101°
2026-05-05 12:20 51.23645 1.33159 25859 ft 325 kts 101°
2026-05-05 12:21 51.23280 1.36739 26109 ft 329 kts 102°
2026-05-05 12:21 51.22909 1.40362 26365 ft 333 kts 102°
2026-05-05 12:21 51.22534 1.44028 26619 ft 337 kts 102°
2026-05-05 12:21 51.22161 1.47694 26873 ft 341 kts 102°
2026-05-05 12:22 51.21776 1.51466 27139 ft 344 kts 102°
2026-05-05 12:22 51.21382 1.55273 27402 ft 348 kts 102°
2026-05-05 12:22 51.20985 1.59087 27668 ft 352 kts 102°
2026-05-05 12:22 51.20584 1.62957 27934 ft 355 kts 102°
2026-05-05 12:23 51.20183 1.66825 28206 ft 359 kts 102°
2026-05-05 12:23 51.19772 1.70744 28474 ft 362 kts 102°
2026-05-05 12:23 51.19345 1.74784 28751 ft 366 kts 102°
2026-05-05 12:23 51.18919 1.78809 29025 ft 369 kts 102°
2026-05-05 12:24 51.18490 1.82854 29315 ft 373 kts 102°
2026-05-05 12:24 51.18057 1.86958 29601 ft 376 kts 102°
2026-05-05 12:24 51.17618 1.91090 29890 ft 380 kts 102°
2026-05-05 12:24 51.17172 1.95253 30148 ft 383 kts 102°
2026-05-05 12:25 51.16720 1.99455 30400 ft 386 kts 102°
2026-05-05 12:25 51.16266 2.03692 30657 ft 389 kts 102°
2026-05-05 12:25 51.15810 2.07955 30898 ft 392 kts 102°
2026-05-05 12:25 51.15356 2.12191 31146 ft 395 kts 102°
2026-05-05 12:26 51.14888 2.16514 31406 ft 397 kts 102°
2026-05-05 12:26 51.14410 2.20870 31661 ft 400 kts 102°
2026-05-05 12:26 51.13930 2.25233 31919 ft 402 kts 102°
2026-05-05 12:26 51.13445 2.29629 32183 ft 404 kts 102°
2026-05-05 12:27 51.12957 2.34043 32443 ft 405 kts 102°
2026-05-05 12:27 51.12469 2.38459 32711 ft 406 kts 103°
2026-05-05 12:27 51.11977 2.42896 32982 ft 407 kts 103°
2026-05-05 12:27 51.11482 2.47345 33255 ft 408 kts 103°
2026-05-05 12:28 51.10985 2.51791 33530 ft 409 kts 103°
2026-05-05 12:28 51.10484 2.56238 33808 ft 409 kts 103°
2026-05-05 12:28 51.09978 2.60694 34065 ft 409 kts 103°
2026-05-05 12:28 51.09453 2.65135 34298 ft 408 kts 106°
2026-05-05 12:29 51.08704 2.69468 34526 ft 406 kts 109°
2026-05-05 12:29 51.07926 2.73763 34773 ft 405 kts 109°
2026-05-05 12:29 51.07139 2.78096 34914 ft 408 kts 109°
2026-05-05 12:29 51.06346 2.82446 34947 ft 413 kts 109°
2026-05-05 12:30 51.04727 2.91350 34944 ft 426 kts 109°
2026-05-05 12:30 51.03056 3.00524 34938 ft 438 kts 109°
2026-05-05 12:31 51.01334 3.09888 34932 ft 444 kts 109°
2026-05-05 12:31 50.99592 3.19315 34925 ft 444 kts 110°
2026-05-05 12:32 50.97843 3.28711 34917 ft 444 kts 110°
2026-05-05 12:32 50.96091 3.38099 34921 ft 444 kts 110°
2026-05-05 12:33 50.94336 3.47474 34923 ft 444 kts 110°
2026-05-05 12:33 50.92567 3.56848 34928 ft 444 kts 110°
2026-05-05 12:34 50.90812 3.66121 34928 ft 443 kts 111°
2026-05-05 12:34 50.89024 3.75505 34926 ft 443 kts 111°
2026-05-05 12:35 50.87244 3.84802 34922 ft 442 kts 111°
2026-05-05 12:35 50.85460 3.94107 34923 ft 442 kts 111°
2026-05-05 12:36 50.83662 4.03428 34926 ft 442 kts 111°
2026-05-05 12:36 50.81861 4.12706 34922 ft 441 kts 111°
2026-05-05 12:37 50.80046 4.21980 34923 ft 441 kts 111°
2026-05-05 12:37 50.78234 4.31229 34921 ft 441 kts 111°
2026-05-05 12:38 50.76413 4.40480 34924 ft 441 kts 111°
2026-05-05 12:38 50.74579 4.49732 34923 ft 441 kts 111°
2026-05-05 12:39 50.72738 4.58970 34922 ft 442 kts 111°
2026-05-05 12:39 50.70899 4.68189 35333 ft 436 kts 111°
2026-05-05 12:40 50.69989 4.72746 35708 ft 434 kts 111°
2026-05-05 12:40 50.69087 4.77250 35964 ft 433 kts 111°
2026-05-05 12:40 50.68174 4.81771 36179 ft 433 kts 111°
2026-05-05 12:40 50.67227 4.86292 36368 ft 432 kts 116°
2026-05-05 12:41 50.65931 4.90530 36561 ft 427 kts 126°
2026-05-05 12:41 50.64227 4.94324 36750 ft 422 kts 134°
2026-05-05 12:41 50.60135 5.00873 36512 ft 420 kts 139°
2026-05-05 12:42 50.58048 5.04095 36391 ft 420 kts 139°
2026-05-05 12:42 50.55952 5.07330 36257 ft 419 kts 139°
2026-05-05 12:42 50.53871 5.10543 36119 ft 419 kts 139°
2026-05-05 12:42 50.51806 5.13726 36001 ft 418 kts 139°
2026-05-05 12:43 50.49714 5.16946 35864 ft 418 kts 139°
2026-05-05 12:43 50.47639 5.20136 35739 ft 417 kts 139°
2026-05-05 12:43 50.45573 5.23311 35614 ft 417 kts 139°
2026-05-05 12:43 50.43492 5.26510 35479 ft 417 kts 139°
2026-05-05 12:44 50.41421 5.29691 35354 ft 417 kts 139°
2026-05-05 12:44 50.39349 5.32866 35226 ft 416 kts 139°
2026-05-05 12:44 50.37279 5.36032 35101 ft 416 kts 139°
2026-05-05 12:44 50.35206 5.39195 34932 ft 416 kts 139°
2026-05-05 12:45 50.31074 5.45491 34878 ft 415 kts 140°
2026-05-05 12:45 50.26938 5.51786 34866 ft 415 kts 140°
2026-05-05 12:46 50.22807 5.58036 34863 ft 415 kts 140°
2026-05-05 12:46 50.18657 5.64306 34861 ft 415 kts 140°
2026-05-05 12:47 50.14509 5.70566 34854 ft 414 kts 140°
2026-05-05 12:47 50.10363 5.76805 34855 ft 414 kts 140°
2026-05-05 12:48 50.06782 5.83856 34856 ft 422 kts 123°
2026-05-05 12:48 50.04144 5.92046 34854 ft 423 kts 121°
2026-05-05 12:49 50.01504 6.00230 34853 ft 422 kts 122°
2026-05-05 12:49 49.98867 6.08379 34845 ft 422 kts 122°
2026-05-05 12:50 49.96232 6.16514 34848 ft 421 kts 122°
2026-05-05 12:50 49.93586 6.24626 34840 ft 421 kts 122°
2026-05-05 12:51 49.90944 6.32722 34835 ft 421 kts 122°
2026-05-05 12:51 49.88317 6.40774 34845 ft 421 kts 122°
2026-05-05 12:52 49.85650 6.48904 34837 ft 420 kts 122°
2026-05-05 12:52 49.82986 6.56957 34840 ft 420 kts 122°
2026-05-05 12:53 49.80345 6.64927 34841 ft 419 kts 122°
2026-05-05 12:53 49.77681 6.72970 34839 ft 419 kts 122°
2026-05-05 12:54 49.73680 6.84991 34842 ft 419 kts 122°
2026-05-05 12:55 49.71007 6.92988 34848 ft 419 kts 122°
2026-05-05 12:55 49.68325 7.00984 34851 ft 419 kts 122°
2026-05-05 12:56 49.65646 7.08957 34854 ft 418 kts 123°
2026-05-05 12:56 49.62961 7.16892 34856 ft 418 kts 123°
2026-05-05 12:57 49.60259 7.24838 34856 ft 418 kts 123°
2026-05-05 12:57 49.57570 7.32783 34857 ft 418 kts 123°
2026-05-05 12:58 49.55325 7.39401 34852 ft 418 kts 123°
2026-05-05 12:58 49.52632 7.47293 34852 ft 418 kts 123°
2026-05-05 12:59 49.49914 7.55224 34851 ft 418 kts 123°
2026-05-05 12:59 49.47202 7.63110 34851 ft 418 kts 123°
2026-05-05 13:00 49.43115 7.74970 34849 ft 418 kts 123°
2026-05-05 13:01 49.37643 7.90736 34858 ft 419 kts 123°
2026-05-05 13:01 49.34898 7.98610 34862 ft 419 kts 123°
2026-05-05 13:02 49.32146 8.06482 34860 ft 419 kts 123°
2026-05-05 13:02 49.29385 8.14355 34853 ft 419 kts 123°
2026-05-05 13:03 49.26625 8.22201 34853 ft 420 kts 123°
2026-05-05 13:03 49.23836 8.30090 34849 ft 420 kts 123°
2026-05-05 13:04 49.21057 8.37957 34848 ft 421 kts 123°
2026-05-05 13:04 49.18262 8.45843 34843 ft 421 kts 123°
2026-05-05 13:05 49.15459 8.53712 34853 ft 422 kts 123°
2026-05-05 13:05 49.12665 8.61540 34862 ft 423 kts 123°
2026-05-05 13:06 49.09885 8.69440 34859 ft 425 kts 121°
2026-05-05 13:06 49.07374 8.77622 34854 ft 427 kts 118°
2026-05-05 13:07 49.04936 8.85987 34852 ft 428 kts 119°
2026-05-05 13:07 49.02465 8.94257 34850 ft 428 kts 120°
2026-05-05 13:08 48.99961 9.02424 34851 ft 429 kts 120°
2026-05-05 13:08 48.97424 9.10625 34850 ft 429 kts 120°
2026-05-05 13:09 48.94885 9.18839 34854 ft 429 kts 120°
2026-05-05 13:09 48.92344 9.27053 34854 ft 430 kts 120°
2026-05-05 13:10 48.89792 9.35278 34851 ft 430 kts 120°
2026-05-05 13:10 48.87235 9.43498 34848 ft 431 kts 120°
2026-05-05 13:11 48.84657 9.51737 34850 ft 431 kts 120°
2026-05-05 13:11 48.82081 9.59965 34850 ft 432 kts 120°
2026-05-05 13:12 48.79490 9.68186 34854 ft 432 kts 120°
2026-05-05 13:12 48.76888 9.76417 34851 ft 433 kts 120°
2026-05-05 13:13 48.74277 9.84648 34855 ft 434 kts 120°
2026-05-05 13:13 48.71672 9.92805 34862 ft 433 kts 121°
2026-05-05 13:14 48.68924 10.00994 34864 ft 433 kts 122°
2026-05-05 13:14 48.66148 10.09021 34860 ft 434 kts 122°
2026-05-05 13:15 48.63354 10.17105 34862 ft 434 kts 122°
2026-05-05 13:15 48.60577 10.25186 34862 ft 435 kts 122°
2026-05-05 13:16 48.57781 10.33333 34858 ft 435 kts 122°
2026-05-05 13:16 48.54994 10.41419 34852 ft 436 kts 122°
2026-05-05 13:17 48.52185 10.49543 34840 ft 436 kts 122°
2026-05-05 13:17 48.49382 10.57633 34829 ft 436 kts 122°
2026-05-05 13:18 48.46552 10.65749 34820 ft 436 kts 122°
2026-05-05 13:18 48.43724 10.73846 34812 ft 437 kts 122°
2026-05-05 13:19 48.40884 10.81936 34811 ft 438 kts 122°
2026-05-05 13:19 48.38038 10.90011 34809 ft 438 kts 122°
2026-05-05 13:20 48.35174 10.98125 34809 ft 439 kts 122°
2026-05-05 13:20 48.32301 11.06244 34808 ft 440 kts 122°
2026-05-05 13:21 48.29418 11.14373 34808 ft 441 kts 122°
2026-05-05 13:21 48.26530 11.22500 34825 ft 441 kts 122°
2026-05-05 13:22 48.23632 11.30606 34828 ft 442 kts 122°
2026-05-05 13:22 48.20716 11.38747 34830 ft 443 kts 122°
2026-05-05 13:23 48.17811 11.46844 34823 ft 443 kts 122°
2026-05-05 13:23 48.14864 11.55019 34820 ft 444 kts 122°
2026-05-05 13:24 48.11925 11.63144 34807 ft 444 kts 122°
2026-05-05 13:24 48.08979 11.71264 34795 ft 444 kts 122°
2026-05-05 13:25 48.06023 11.79389 34789 ft 445 kts 122°
2026-05-05 13:25 48.03056 11.87514 34785 ft 445 kts 122°
2026-05-05 13:26 48.00086 11.95633 34784 ft 446 kts 122°
2026-05-05 13:26 47.97100 12.03749 34788 ft 447 kts 122°
2026-05-05 13:27 47.94125 12.11816 34786 ft 448 kts 122°
2026-05-05 13:27 47.91091 12.20026 34795 ft 448 kts 122°
2026-05-05 13:28 47.88091 12.28100 34780 ft 449 kts 122°
2026-05-05 13:28 47.85074 12.36203 34789 ft 450 kts 122°
2026-05-05 13:29 47.82036 12.44360 34778 ft 450 kts 122°
2026-05-05 13:29 47.79001 12.52491 34784 ft 451 kts 122°
2026-05-05 13:30 47.75940 12.60646 34786 ft 451 kts 122°
2026-05-05 13:30 47.72876 12.68791 34788 ft 452 kts 122°
2026-05-05 13:31 47.69802 12.76943 34788 ft 452 kts 122°
2026-05-05 13:31 47.66004 12.84240 34783 ft 445 kts 139°
2026-05-05 13:32 47.61594 12.90710 34788 ft 446 kts 138°
2026-05-05 13:32 47.57192 12.97206 34792 ft 447 kts 138°
2026-05-05 13:33 47.52793 13.03703 34802 ft 447 kts 138°
2026-05-05 13:33 47.48374 13.10200 34809 ft 448 kts 138°
2026-05-05 13:34 47.43951 13.16686 34821 ft 448 kts 138°
2026-05-05 13:34 47.39558 13.23102 34836 ft 448 kts 139°
2026-05-05 13:35 47.35090 13.29612 34839 ft 448 kts 139°
2026-05-05 13:35 47.31010 13.36578 34850 ft 452 kts 129°
2026-05-05 13:36 47.27349 13.44067 34861 ft 452 kts 129°
2026-05-05 13:36 47.23647 13.51573 34873 ft 452 kts 129°
2026-05-05 13:37 47.19936 13.59051 34880 ft 452 kts 129°
2026-05-05 13:37 47.16233 13.66513 34888 ft 452 kts 129°
2026-05-05 13:38 47.12539 13.73949 34896 ft 452 kts 129°
2026-05-05 13:38 47.08819 13.81421 34903 ft 452 kts 129°
2026-05-05 13:39 47.05107 13.88848 34906 ft 452 kts 129°
2026-05-05 13:39 47.01373 13.96286 34907 ft 452 kts 129°
2026-05-05 13:40 46.97650 14.03703 34910 ft 452 kts 129°
2026-05-05 13:40 46.93924 14.11118 34915 ft 452 kts 129°
2026-05-05 13:41 46.90189 14.18511 34930 ft 452 kts 129°
2026-05-05 13:41 46.86437 14.25898 34941 ft 452 kts 129°
2026-05-05 13:42 46.82687 14.33280 34951 ft 452 kts 129°
2026-05-05 13:42 46.78941 14.40639 34958 ft 452 kts 129°
2026-05-05 13:43 46.75186 14.47998 34962 ft 452 kts 129°
2026-05-05 13:43 46.71422 14.55355 34960 ft 452 kts 129°
2026-05-05 13:44 46.68290 14.61453 34957 ft 452 kts 129°
2026-05-05 13:44 46.64532 14.68759 34948 ft 452 kts 130°
2026-05-05 13:45 46.60750 14.76087 34946 ft 453 kts 130°
2026-05-05 13:45 46.56957 14.83420 34935 ft 453 kts 130°
2026-05-05 13:46 46.53177 14.90731 34937 ft 453 kts 130°
2026-05-05 13:46 46.49385 14.98029 34938 ft 452 kts 130°
2026-05-05 13:47 46.45593 15.05291 34940 ft 453 kts 130°
2026-05-05 13:47 46.41780 15.12577 34945 ft 453 kts 130°
2026-05-05 13:48 46.37973 15.19850 34948 ft 453 kts 130°
2026-05-05 13:48 46.34257 15.27236 34950 ft 454 kts 128°
2026-05-05 13:49 46.30695 15.34717 34950 ft 455 kts 127°
2026-05-05 13:49 46.27090 15.42297 34950 ft 455 kts 128°
2026-05-05 13:50 46.23458 15.49780 34953 ft 455 kts 128°
2026-05-05 13:50 46.19801 15.57232 34957 ft 455 kts 128°
2026-05-05 13:51 46.16144 15.64592 34973 ft 454 kts 130°
2026-05-05 13:51 46.12216 15.71677 34980 ft 453 kts 133°
2026-05-05 13:52 46.08140 15.78618 34980 ft 453 kts 133°
2026-05-05 13:52 46.04087 15.85571 34984 ft 453 kts 132°
2026-05-05 13:53 46.00086 15.92572 34983 ft 454 kts 132°
2026-05-05 13:53 45.96090 15.99598 34986 ft 454 kts 132°
2026-05-05 13:54 45.92074 16.06615 34993 ft 454 kts 132°
2026-05-05 13:54 45.88053 16.13598 34991 ft 454 kts 132°
2026-05-05 13:55 45.84032 16.20553 34998 ft 453 kts 132°
2026-05-05 13:55 45.80012 16.27486 34991 ft 453 kts 132°
2026-05-05 13:56 45.75975 16.34441 34984 ft 453 kts 132°
2026-05-05 13:56 45.71949 16.41363 34989 ft 453 kts 132°
2026-05-05 13:57 45.67912 16.48282 34970 ft 453 kts 132°
2026-05-05 13:57 45.63876 16.55179 34979 ft 452 kts 133°
2026-05-05 13:58 45.59828 16.62081 34968 ft 452 kts 132°
2026-05-05 13:58 45.55791 16.68962 34972 ft 452 kts 133°
2026-05-05 13:59 45.49716 16.79279 34967 ft 453 kts 133°
2026-05-05 14:00 45.43652 16.89516 34968 ft 453 kts 132°
2026-05-05 14:00 45.39546 16.96440 34963 ft 454 kts 132°
2026-05-05 14:01 45.35466 17.03296 34961 ft 455 kts 133°
2026-05-05 14:01 45.31377 17.10153 34958 ft 456 kts 132°
2026-05-05 14:02 45.27263 17.17038 34963 ft 456 kts 132°
2026-05-05 14:02 45.23150 17.23906 34966 ft 457 kts 132°
2026-05-05 14:03 45.19027 17.30770 34968 ft 458 kts 132°
2026-05-05 14:03 45.14921 17.37589 34965 ft 458 kts 131°
2026-05-05 14:04 45.11563 17.45353 34969 ft 462 kts 118°
2026-05-05 14:04 45.08668 17.53469 34962 ft 462 kts 118°
2026-05-05 14:05 45.05753 17.61592 34965 ft 463 kts 118°
2026-05-05 14:05 45.02829 17.69693 34966 ft 464 kts 119°
2026-05-05 14:06 44.99892 17.77817 34956 ft 464 kts 119°
2026-05-05 14:06 44.96944 17.85953 34954 ft 465 kts 119°
2026-05-05 14:07 44.93985 17.94093 34952 ft 466 kts 119°
2026-05-05 14:07 44.91039 18.02176 34950 ft 467 kts 119°
2026-05-05 14:08 44.88062 18.10325 34949 ft 468 kts 119°
2026-05-05 14:08 44.85077 18.18460 34947 ft 468 kts 119°
2026-05-05 14:09 44.82067 18.26622 34947 ft 470 kts 119°
2026-05-05 14:09 44.79059 18.34782 34953 ft 471 kts 119°
2026-05-05 14:10 44.76034 18.42983 34951 ft 472 kts 119°
2026-05-05 14:10 44.73000 18.51153 34953 ft 472 kts 119°
2026-05-05 14:11 44.69954 18.59328 34956 ft 472 kts 119°
2026-05-05 14:11 44.66906 18.67499 34966 ft 472 kts 119°
2026-05-05 14:12 44.63850 18.75666 34965 ft 472 kts 119°
2026-05-05 14:12 44.60792 18.83812 34965 ft 472 kts 119°
2026-05-05 14:13 44.57713 18.91966 34966 ft 473 kts 119°
2026-05-05 14:13 44.54631 19.00110 34963 ft 473 kts 119°
2026-05-05 14:14 44.51551 19.08258 34960 ft 473 kts 119°
2026-05-05 14:14 44.48470 19.16384 34958 ft 473 kts 119°
2026-05-05 14:15 44.45373 19.24506 34953 ft 473 kts 119°
2026-05-05 14:15 44.42263 19.32635 34956 ft 473 kts 119°
2026-05-05 14:16 44.39146 19.40739 34958 ft 474 kts 119°
2026-05-05 14:16 44.36019 19.48854 34960 ft 474 kts 119°
2026-05-05 14:17 44.32899 19.56961 34963 ft 474 kts 119°
2026-05-05 14:17 44.29768 19.65091 34961 ft 474 kts 119°
2026-05-05 14:18 44.26637 19.73179 34964 ft 474 kts 119°
2026-05-05 14:18 44.23489 19.81255 34966 ft 474 kts 119°
2026-05-05 14:19 44.20345 19.89288 34965 ft 473 kts 119°
2026-05-05 14:19 44.17179 19.97374 34969 ft 473 kts 119°
2026-05-05 14:20 44.14025 20.05422 34973 ft 473 kts 119°
2026-05-05 14:20 44.10866 20.13457 34975 ft 473 kts 119°
2026-05-05 14:21 44.07707 20.21478 34976 ft 473 kts 119°
2026-05-05 14:21 44.04542 20.29484 34978 ft 473 kts 119°
2026-05-05 14:22 44.01371 20.37482 34835 ft 473 kts 118°
2026-05-05 14:22 43.99781 20.41482 34590 ft 473 kts 119°
2026-05-05 14:22 43.98194 20.45472 34350 ft 473 kts 119°
2026-05-05 14:23 43.96602 20.49465 34089 ft 473 kts 119°
2026-05-05 14:23 43.95003 20.53465 33761 ft 473 kts 119°
2026-05-05 14:23 43.93406 20.57449 33405 ft 473 kts 119°
2026-05-05 14:23 43.91808 20.61432 33050 ft 471 kts 118°
2026-05-05 14:24 43.90220 20.65392 32705 ft 469 kts 119°
2026-05-05 14:24 43.88636 20.69331 32364 ft 467 kts 119°
2026-05-05 14:24 43.87058 20.73250 32023 ft 464 kts 118°
2026-05-05 14:24 43.85488 20.77149 31696 ft 462 kts 118°
2026-05-05 14:25 43.83926 20.81023 31368 ft 459 kts 118°
2026-05-05 14:25 43.82376 20.84868 31034 ft 457 kts 119°
2026-05-05 14:25 43.80828 20.88694 30709 ft 454 kts 119°
2026-05-05 14:25 43.79286 20.92493 30400 ft 452 kts 119°
2026-05-05 14:26 43.77747 20.96277 30086 ft 449 kts 119°
2026-05-05 14:26 43.76194 21.00016 29726 ft 447 kts 120°
2026-05-05 14:26 43.74627 21.03709 29357 ft 444 kts 120°
2026-05-05 14:26 43.73054 21.07370 28998 ft 441 kts 120°
2026-05-05 14:27 43.71493 21.10992 28644 ft 438 kts 120°
2026-05-05 14:27 43.70458 21.13394 28411 ft 436 kts 120°
2026-05-05 14:27 43.68915 21.16990 28060 ft 434 kts 120°
2026-05-05 14:27 43.67383 21.20559 27710 ft 431 kts 120°
2026-05-05 14:28 43.65860 21.24105 27359 ft 428 kts 120°
2026-05-05 14:28 43.64341 21.27640 27025 ft 426 kts 120°
2026-05-05 14:28 43.62835 21.31144 26665 ft 423 kts 120°
2026-05-05 14:28 43.61338 21.34622 26302 ft 421 kts 120°
2026-05-05 14:29 43.59848 21.38083 25966 ft 418 kts 120°
2026-05-05 14:29 43.58366 21.41526 25624 ft 416 kts 120°
2026-05-05 14:29 43.56895 21.44936 25282 ft 413 kts 120°
2026-05-05 14:29 43.55430 21.48327 24948 ft 411 kts 120°
2026-05-05 14:30 43.53971 21.51699 24617 ft 409 kts 120°
2026-05-05 14:30 43.52517 21.55054 24290 ft 406 kts 120°
2026-05-05 14:30 43.51072 21.58378 23972 ft 404 kts 120°
2026-05-05 14:30 43.49630 21.61691 23653 ft 402 kts 120°
2026-05-05 14:31 43.48219 21.64936 23278 ft 399 kts 120°
2026-05-05 14:31 43.46774 21.68254 22909 ft 397 kts 120°
2026-05-05 14:31 43.45362 21.71486 22534 ft 394 kts 120°
2026-05-05 14:31 43.43952 21.74715 22152 ft 391 kts 120°
2026-05-05 14:32 43.42557 21.77909 21800 ft 388 kts 120°
2026-05-05 14:32 43.41192 21.81030 21440 ft 386 kts 120°
2026-05-05 14:32 43.39794 21.84226 21069 ft 383 kts 120°
2026-05-05 14:32 43.38421 21.87361 20721 ft 381 kts 120°
2026-05-05 14:33 43.37058 21.90473 20372 ft 378 kts 120°
2026-05-05 14:33 43.35725 21.93516 20023 ft 376 kts 120°
2026-05-05 14:33 43.34369 21.96611 19686 ft 373 kts 120°
2026-05-05 14:33 43.33049 21.99619 19347 ft 371 kts 120°
2026-05-05 14:34 43.31717 22.02647 19000 ft 369 kts 120°
2026-05-05 14:34 43.30376 22.05692 18674 ft 366 kts 120°
2026-05-05 14:34 43.29079 22.08633 18351 ft 364 kts 120°
2026-05-05 14:34 43.27774 22.11589 17982 ft 362 kts 120°
2026-05-05 14:35 43.26472 22.14533 17603 ft 360 kts 120°
2026-05-05 14:35 43.25173 22.17464 17242 ft 358 kts 120°
2026-05-05 14:35 43.23882 22.20367 16873 ft 356 kts 120°
2026-05-05 14:35 43.22577 22.23298 16501 ft 354 kts 120°
2026-05-05 14:36 43.21316 22.26125 16162 ft 352 kts 120°
2026-05-05 14:36 43.20054 22.28962 15809 ft 350 kts 120°
2026-05-05 14:36 43.18785 22.31821 15462 ft 348 kts 120°
2026-05-05 14:36 43.17533 22.34639 15115 ft 346 kts 120°
2026-05-05 14:37 43.16268 22.37482 14769 ft 344 kts 120°
2026-05-05 14:37 43.15044 22.40227 14434 ft 342 kts 120°
2026-05-05 14:37 43.13804 22.43004 14108 ft 340 kts 121°
2026-05-05 14:37 43.12571 22.45762 13772 ft 339 kts 121°
2026-05-05 14:38 43.11344 22.48501 13399 ft 337 kts 121°
2026-05-05 14:38 43.10119 22.51230 13032 ft 334 kts 121°
2026-05-05 14:38 43.08905 22.53929 12665 ft 332 kts 121°
2026-05-05 14:38 43.07705 22.56608 12419 ft 327 kts 121°
2026-05-05 14:39 43.06511 22.59263 12479 ft 329 kts 121°
2026-05-05 14:39 43.05307 22.61939 12574 ft 331 kts 121°
2026-05-05 14:39 43.04099 22.64623 12676 ft 332 kts 121°
2026-05-05 14:39 43.02889 22.67316 12780 ft 333 kts 121°
2026-05-05 14:40 43.01681 22.70001 12929 ft 333 kts 121°
2026-05-05 14:40 43.00458 22.72709 13005 ft 334 kts 121°
2026-05-05 14:40 42.99238 22.75408 13007 ft 334 kts 121°
2026-05-05 14:40 42.98001 22.78094 13015 ft 334 kts 124°
2026-05-05 14:41 42.96475 22.80491 12949 ft 336 kts 136°
2026-05-05 14:41 42.94640 22.82529 12093 ft 346 kts 142°
2026-05-05 14:41 42.92698 22.84513 11252 ft 347 kts 143°
2026-05-05 14:41 42.90774 22.86451 10462 ft 341 kts 143°
2026-05-05 14:42 42.88915 22.88312 10217 ft 319 kts 143°
2026-05-05 14:42 42.87210 22.90023 10005 ft 301 kts 143°
2026-05-05 14:42 42.85528 22.91724 9470 ft 294 kts 143°
2026-05-05 14:42 42.83883 22.93395 8838 ft 293 kts 143°
2026-05-05 14:43 42.82280 22.95026 8254 ft 290 kts 143°
2026-05-05 14:43 42.80670 22.96661 7645 ft 288 kts 143°
2026-05-05 14:43 42.79052 22.98300 6895 ft 292 kts 142°
2026-05-05 14:43 42.77430 22.99941 6467 ft 284 kts 142°
2026-05-05 14:44 42.75891 23.01497 6304 ft 267 kts 143°
2026-05-05 14:44 42.74450 23.02954 6183 ft 250 kts 142°
2026-05-05 14:44 42.73127 23.04353 6068 ft 232 kts 135°
2026-05-05 14:44 42.72180 23.06011 5978 ft 214 kts 116°
2026-05-05 14:45 42.71681 23.07780 6004 ft 189 kts 102°
2026-05-05 14:45 42.71527 23.09455 5963 ft 176 kts 94°
2026-05-05 14:45 42.71430 23.11138 5807 ft 182 kts 94°
2026-05-05 14:45 42.71331 23.12863 5592 ft 183 kts 94°
2026-05-05 14:46 42.71232 23.14586 5359 ft 182 kts 94°
2026-05-05 14:46 42.71134 23.16297 5129 ft 181 kts 93°
2026-05-05 14:46 42.71036 23.18000 4892 ft 181 kts 94°
2026-05-05 14:46 42.70938 23.19694 4654 ft 178 kts 94°
2026-05-05 14:47 42.70841 23.21375 4423 ft 178 kts 93°
2026-05-05 14:47 42.70744 23.23047 4192 ft 177 kts 93°
2026-05-05 14:47 42.70648 23.24707 3962 ft 175 kts 94°
2026-05-05 14:47 42.70552 23.26339 3736 ft 171 kts 93°
2026-05-05 14:48 42.70459 23.27947 3514 ft 170 kts 94°
2026-05-05 14:48 42.70364 23.29558 3296 ft 171 kts 93°
2026-05-05 14:48 42.70270 23.31171 3072 ft 172 kts 93°
2026-05-05 14:48 42.70175 23.32792 2839 ft 174 kts 92°
2026-05-05 14:49 42.70081 23.34361 2605 ft 158 kts 92°
2026-05-05 14:49 42.69997 23.35789 2388 ft 148 kts 94°
2026-05-05 14:49 42.69915 23.37167 2198 ft 145 kts 95°
2026-05-05 14:49 42.69832 23.38525 1980 ft 143 kts 94°
2026-05-05 14:50 42.69757 23.39868 1784 ft 142 kts 94°
2026-05-05 14:50 42.69690 23.41047 1749 ft 104 kts 95°
2026-05-05 14:50 42.69644 23.41789 1751 ft 54 kts 95°
2026-05-05 14:50 42.69624 23.42138 1747 ft 32 kts 94°
2026-05-05 14:51 42.69600 23.42443 1750 ft 33 kts 101°
2026-05-05 14:51 42.69524 23.42666 1747 ft 18 kts 123°
2026-05-05 14:51 42.69429 23.42749 1752 ft 18 kts 200°
2026-05-05 14:51 42.69407 23.42595 1744 ft 17 kts 274°
2026-05-05 14:52 42.69395 23.42435 1748 ft 16 kts 218°
2026-05-05 14:52 42.69281 23.42402 1751 ft 18 kts 204°
2026-05-05 14:52 42.69217 23.42257 1748 ft 19 kts 253°
2026-05-05 14:52 42.69180 23.42087 1749 ft 18 kts 253°
2026-05-05 14:53 42.69145 23.41930 1749 ft 18 kts 253°
2026-05-05 14:53 42.69112 23.41780 1748 ft 14 kts 253°
2026-05-05 14:53 42.69087 23.41664 1746 ft 8 kts 254°
2026-05-05 14:53 42.69092 23.41607 1743 ft 7 kts 306°
2026-05-05 14:54 42.69136 23.41573 1748 ft 8 kts 341°
2026-05-05 14:54 42.69160 23.41522 1742 ft 8 kts 246°
2026-05-05 14:54 42.69145 23.41465 1747 ft 6 kts 251°
2026-05-05 14:54 42.69137 23.41431 1750 ft 0 kts 252°